Location: Newark
(13.8117°N, 3.6025°W)
Time: 23:04:53
(UTC+00:00)

Explorer 11/Cluster Stage 4 - Pass Details

Date: 27 August 2019
Orbit: 467 x 1260 km, 28.8° (Epoch: 21 September)

Event Time Altitude Azimuth Distance (km) Brightness Sun altitude
Rises 16:05:16 0° 289° (WNW) 4,109 11.2 33.9°
Reaches altitude 10° 16:08:25 10° 283° (WNW) 3,070 11.0 33.1°
Maximum altitude 16:15:38 46° 213° (SSW) 1,352 8.5 31.4°
Drops below altitude 10° 16:21:39 10° 141° (SE) 2,557 8.9 29.9°
Sets 16:24:05 0° 135° (SE) 3,372 9.4 29.3°
